Home   Weather   Riyadh   Past weeks
Flag for Saudi Arabia

Past Weather in Riyadh, Saudi Arabia — August 2017

Now
102 °F

Clear.


Feels Like: 97 °F
Forecast: 110 / 76 °F
Wind: 5 mph from Northeast

Location: King Khaled International Airport

Current Time: Aug 25, 2019 at 7:38:41 pm

Latest Report: Aug 25, 2019 at 7:00 pm


Visibility: 10 mi

Pressure: 29.74 "Hg (27.88 "Hg at 590m altitude)

Humidity: 12%

Dew Point: 41 °F

Location of RiyadhLocation

August 2017 Weather in Riyadh — Graph

°F

High & Low Weather Summary for August 2017

 TemperatureHumidityPressure
High115 °F (Aug 1, 2:00 pm)34% (Aug 29, 5:00 am)29.80 "Hg (Aug 29, 5:00 am)
Low79 °F (Aug 31, 5:00 am)4% (Aug 5, 4:00 pm)29.56 "Hg (Aug 10, 4:00 pm)
Average99 °F11%29.69 "Hg
* Reported Aug 1 12:00 am — Aug 31 11:00 pm, Riyadh. Weather by CustomWeather, © 2019

Note: Actual official high and low records may vary slightly from our data, if they occured in-between our weather recording intervals... More about our weather records

Advertising

Riyadh Weather History for August 1, 2017

Scroll right to see more
 ConditionsComfort  
Time TempWeatherWind HumidityBarometerVisibility
12:00 am
Tue, Aug 1
93 °FClear.No wind11%29.77 "Hg10 mi
1:00 am88 °FClear.No wind13%29.77 "Hg10 mi
2:00 am90 °FClear.5 mph12%29.77 "Hg10 mi
3:00 am86 °FClear.3 mph14%29.77 "Hg10 mi
4:00 am86 °FClear.3 mph12%29.77 "Hg10 mi
5:00 am84 °FClear.3 mph14%29.77 "Hg10 mi
6:00 am84 °FSunny.3 mph14%29.77 "Hg10 mi
7:00 am90 °FSunny.No wind15%29.80 "Hg10 mi
8:00 am97 °FSunny.3 mph11%29.80 "Hg10 mi
9:00 am104 °FSunny.7 mph9%29.80 "Hg10 mi
10:00 am109 °FSunny.5 mph8%29.80 "Hg10 mi
11:00 am111 °FSunny.7 mph7%29.77 "Hg10 mi
12:00 pm113 °FSunny.10 mph7%29.77 "Hg10 mi
1:00 pm113 °FPassing clouds.8 mph7%29.74 "HgN/A
2:00 pm115 °FScattered clouds.13 mph6%29.71 "HgN/A
3:00 pm111 °FScattered clouds.10 mph6%29.71 "HgN/A
4:00 pm111 °FScattered clouds.17 mph6%29.71 "Hg5 mi
5:00 pm111 °FScattered clouds.20 mph6%29.68 "Hg5 mi
6:00 pm109 °FScattered clouds.15 mph7%29.71 "Hg5 mi
7:00 pm106 °FPassing clouds.7 mph8%29.71 "Hg5 mi
8:00 pm102 °FClear.6 mph9%29.74 "Hg10 mi
9:00 pm99 °FClear.5 mph10%29.74 "Hg10 mi
10:00 pm99 °FClear.No wind10%29.74 "Hg10 mi
11:00 pm95 °FClear.No wind11%29.74 "Hg10 mi
Weather by CustomWeather, © 2019

See weather overview